Regional Weather Roundup
Issued by NWS

Home | Current Version | Previous Version | Graphics & Text | Print | Product List | Glossary On
Versions: 1 2 3 4 5 6 7 8 9 10 11 12 13 14 15 16 17 18 19 20 21 22 23 24 25 26 27 28 29 30 31 32 33 34 35 36 37 38 39 40 41 42 43 44 45 46 47 48 49 50
000
ASUS45 KABQ 171910
RWRNM
WEATHER ROUNDUP FOR NEW MEXICO
NATIONAL WEATHER SERVICE ALBUQUERQUE NM
1200 PM MST WED DEC 17 2014

NOTE: "FAIR" MEANS FEW OR NO CLOUDS BELOW 12,000 FEET AGL WITH NO
       SIGNIFICANT WEATHER OR OBSTRUCTIONS TO VISION.

      THIS PRODUCT IS RELEASED AS TWO VERSIONS.  ONE VERSION NEAR
      THE TOP OF THE HOUR CONTAINING PRELIMINARY DATA FROM ALBUQUERQUE
      AND OTHER STATIONS.  A FINAL VERSION WITH ADDITIONAL DATA IS
      ISSUED ABOUT 10 MINUTES AFTER THE HOUR.

NMZ501-503-504-510>518-172000-
NORTHWEST PLATEAU/NORTHCENTRAL MOUNTAINS

CITY           SKY/WX    TMP DP  RH WIND       PRES   REMARKS
FARMINGTON     CLOUDY    41  26  55 SW5       29.97F
LOS ALAMOS     LGT SNOW  31  31 100 CALM      29.98F
SANTA FE       LGT SNOW  33  31  92 CALM      29.98F VSB 1
TAOS           CLOUDY    30  27  86 N6        29.98F WCI  24
ANGEL FIRE     LGT SNOW  27  25  91 N3        29.95F

$$
NMZ402-403-502-505>509-172000-
WESTCENTRAL MOUNTAINS/SOUTHWEST MOUNTAINS

CITY           SKY/WX    TMP DP  RH WIND       PRES   REMARKS
GALLUP         FLURRIES  35  32  88 SW10      30.00F WCI  27
GRANTS         CLOUDY    37  34  89 CALM      30.01F
SILVER CITY    CLOUDY    45  36  70 W13G22    30.10F

$$
NMZ407-409-411-412-172000-
SOUTHERN DESERTS

CITY           SKY/WX    TMP DP  RH WIND       PRES   REMARKS
LORDSBURG      CLOUDY    54  34  47 W21G28    30.08F
DEMING         PTSUNNY   55  33  43 W20G25    30.06F
LAS CRUCES     PTSUNNY   54  32  42 SW13      30.07F
HOLLOMAN AFB   MOSUNNY   57  31  38 S15G22    30.03F
ALAMOGORDO     PTSUNNY   54  30  40 SW13G18   30.05F
T OR C         PTSUNNY   52  30  43 SW16      30.00F

$$
NMZ519>523-172000-
CENTRAL VALLEYS/CENTRAL HIGHLANDS

CITY           SKY/WX    TMP DP  RH WIND       PRES   REMARKS
ALBUQUERQUE    CLOUDY    39  34  82 SE3       30.01F
DOUBLE EAGLE   CLOUDY    36  34  93 SW7       30.01F WCI  30
MORIARTY ARPT  LGT RAIN  36  33  86 CALM      29.99F
CLINES CORNERS LGT SNOW  35  31  85 SW21      29.95F FOG     WCI  24
BELEN          MOCLDY    40  34  77 CALM      30.01F
SOCORRO        FAIR      45  30  55 CALM      30.01F

$$
NMZ524>526-539-540-172000-
SOUTHCENTRAL MOUNTAINS

CITY           SKY/WX    TMP DP  RH WIND       PRES   REMARKS
RUIDOSO        MOSUNNY   45  27  49 SW23G30   30.01F

$$
NMZ527>531-172000-
NORTHEAST HIGHLANDS/NORTHEAST PLAINS

CITY           SKY/WX    TMP DP  RH WIND       PRES   REMARKS
LAS VEGAS      CLOUDY    44  27  51 SW21G30   29.93F
RATON          CLOUDY    34  23  64 N3        29.92F
CLAYTON        PTSUNNY   43  28  55 SW15      29.92F

$$
NMZ532>537-172000-
EASTCENTRAL PLAINS

CITY           SKY/WX    TMP DP  RH WIND       PRES   REMARKS
TUCUMCARI      PTSUNNY   53  31  42 SW18      29.94F
CANNON AFB     PTSUNNY   47  31  55 SW9       29.98F
CLOVIS AIRPORT CLOUDY    46  30  53 SW14      29.98F

$$
NMZ028-029-538-172000-
SOUTHEAST PLAINS

CITY           SKY/WX    TMP DP  RH WIND       PRES   REMARKS
ROSWELL        SUNNY     51  32  48 S8        29.99F
ARTESIA        SUNNY     54  34  47 S7        29.99F
CARLSBAD       SUNNY     60  34  37 SE8       29.98F
HOBBS          SUNNY     55  36  47 S12       30.01F


$$



USA.gov is the U.S. government's official web portal to all federal, state and local government web resources and services.